User: anonymous   Login
Location: Unspecified
(0.0000°N, 0.0000°E)
Time: 19:38:59
(UTC+01:00)
Language:

Palapa 6 Rocket - Orbit

View from above orbital plane
View from above orbital plane
View from above satellite
View from above satellite

Ground track
Ground track

The orbit data is extracted from the following two-line orbital elements,

1 20571U 90034B   14353.97357625  .00001654  00000-0  20257-3 0  5969
2 20571 022.7475 213.0971 0515104 202.6982 297.3423 14.10270195263306
Epoch (UTC): 19 December 2014 23:21:56
Eccentricity: 0.0515104
inclination: 22.7475°
perigee height: 485 km
apogee height: 1231 km
right ascension of ascending node: 213.0971°
argument of perigee: 202.6982°
revolutions per day: 14.10270195
mean anomaly at epoch: 297.3423°
orbit number at epoch: 26330

The dashed part of the orbit path shows where the satellite is in the earth's shadow,  

DLR